This demonstration page uses our WeatherBlox Daily Observations layout. Learn more.

Left ArrowRight Arrow

39.12711, -84.51439

Hourly Observations for August 22, 2018

Temp ( °F °C ) Dew Point ( °F °C ) Humidity (%) Winds ( mph kmh ) Pressure ( in mb ) Visibility ( mi km ) Precip ( " mm )
12:28 am 00:28 Cloudy 73 22.8 69 20.6 87 87 WNW 5 7 29.91 1013 10 16 N/A
12:53 am 00:53 Cloudy 73 22.8 69 20.6 87 87 NW 8 13 29.93 1013 10 16 N/A
1:00 am 01:00 Cloudy 73 22.8 69 20.6 87 87 NNW 6 9 29.91 1013 10 16 N/A
1:53 am 01:53 Cloudy 73 22.8 68 20 84 84 NW 7 11 29.93 1014 10 16 N/A
2:53 am 02:53 Mostly Cloudy 71 21.7 67 19.4 87 87 N 8 13 29.94 1014 10 16 N/A
3:53 am 03:53 Partly Cloudy 70 21.1 66 18.9 87 87 WNW 3 6 29.95 1014 9 14 N/A
4:53 am 04:53 Clear 68 20 65 18.3 90 90 VRB 3 6 29.96 1015 9 14 N/A
5:53 am 05:53 Clear 67 19.4 65 18.3 93 93 VRB 3 6 29.98 1015 8 13 N/A
6:53 am 06:53 Clear 66 18.9 64 17.8 93 93 NW 6 9 30.00 1016 8 13 N/A
7:53 am 07:53 Sunny 67 19.4 64 17.8 91 91 WNW 8 13 30.01 1016 7 11 N/A
8:53 am 08:53 Partly Cloudy 70 21.1 63 17.2 79 79 NW 9 15 30.03 1017 9 14 N/A
9:53 am 09:53 Cloudy 72 22.2 61 16.1 68 68 NNW 8 13 30.04 1017 10 16 N/A
10:53 am 10:53 Cloudy 70 21.1 60 15.6 71 71 NNW 12 19 30.06 1018 10 16 N/A
11:53 am 11:53 Mostly Cloudy 72 22.2 57 13.9 59 59 NNW 12 19 30.08 1019 10 16 N/A
12:53 pm 12:53 Mostly Cloudy 75 23.9 58 14.4 55 55 N 14 22 30.07 1018 10 16 N/A
1:53 pm 13:53 Partly Cloudy 75 23.9 56 13.3 52 52 NNW 13 20 30.07 1018 10 16 N/A
2:53 pm 14:53 Partly Cloudy 76 24.4 54 12.2 47 47 NNW 15 24 30.07 1018 10 16 N/A
3:53 pm 15:53 Mostly Sunny 77 25 53 11.7 43 43 NW 16 26 30.06 1018 10 16 N/A
4:53 pm 16:53 Sunny 76 24.4 52 11.1 43 43 NW 15 24 30.05 1018 10 16 N/A
5:53 pm 17:53 Mostly Sunny 76 24.4 52 11.1 43 43 NNW 12 19 30.06 1018 10 16 N/A
6:53 pm 18:53 Sunny 74 23.3 52 11.1 46 46 NNW 13 20 30.06 1018 10 16 N/A
7:53 pm 19:53 Mostly Sunny 73 22.8 52 11.1 48 48 N 8 13 30.07 1018 10 16 N/A
8:53 pm 20:53 Clear 66 18.9 56 13.3 70 70 N N/A 30.09 1019 10 16 N/A
9:53 pm 21:53 Clear 62 16.7 57 13.9 84 84 N N/A 30.11 1020 10 16 N/A
10:53 pm 22:53 Clear 61 16.1 58 14.4 90 90 N N/A 30.12 1020 10 16 N/A
11:53 pm 23:53 Clear 59 15 58 14.4 96 96 N N/A 30.12 1020 10 16 N/A

Powered by AerisWeather